Weather History for Wainwright, AK

Change the Weather History Date:

Saturday, December 1, 2012

  Actual Average (PABR) Record (PABR)
Temperature  
Mean Temperature 4 °F -5 °F  
Max Temperature 15 °F - 30 °F (2006)
Min Temperature -7 °F -10 °F -42 °F (1948)
Degree Days  
Heating Degree Days 61 70  
Month to date heating degree days 70  
Since 1 July heating degree days 6020  
Cooling Degree Days 0    
Month to date cooling degree days  
Year to date cooling degree days  
Moisture  
Dew Point 0 °F    
Average Humidity 82    
Maximum Humidity 86    
Minimum Humidity 76    
Precipitation  
Precipitation 0.00 in 0.01 in 0.07 in (1987)
Month to date precipitation 0.01  
Year to date precipitation 4.40  
Snow  
Snow 0.00 in 0.10 in 1.40 in (2012)
Month to date snowfall 0.1  
Since 1 July snowfall 20.4  
Snow Depth -    
Sea Level Pressure  
Sea Level Pressure 30.06 in    
Wind  
Wind Speed 11 mph (NW)    
Max Wind Speed 14 mph    
Max Gust Speed -    
Visibility 7 miles    
Events Snow    
T = Trace of Precipitation, MM = Missing Value Source: NWS Daily Summary

Daily Weather History Graph

Daily Weather History Graph

Search for Another Location

Airport:

Trip Planner

Search our weather history database for the weather conditions in past years. The results will help you decide how hot, cold, wet, or windy it might be!

Date:

Astronomy

Dec. 31, 1969 Rise Set
Actual Time Sun does not rise Sun does not rise
Civil Twilight 11:04 AM AKST 3:53 PM AKST
Nautical Twilight 9:21 AM AKST 5:36 PM AKST
Astronomical Twilight 8:01 AM AKST 6:56 PM AKST
Moon 5:41 PM AKST (12/1) 2:44 PM AKST (12/1)
Length of Visible Light 4h 48m
Length of Day
0h 00m
Waning Gibbous, 91% of the Moon is Illuminated
Dec 1
Waning Gibbous
Dec 6
Last Quarter
Dec 12
New
Dec 19
First Quarter
Dec 28
Full

Hourly Weather History & Observations

Time (AKST) Temp. Windchill Dew Point Humidity Pressure Visibility Wind Dir Wind Speed Gust Speed Precip Events Conditions
12:53 AM 9.0 °F -5.9 °F 3.9 °F 80% 30.09 in 9.0 mi NW 11.5 mph - 0.00 in Snow Light Snow
1:53 AM 10.0 °F -3.7 °F 5.0 °F 80% 30.09 in 10.0 mi NW 10.4 mph - 0.00 in   Overcast
3:42 AM 12.2 °F -0.2 °F 6.8 °F 79% 30.08 in 5.0 mi NNW 9.2 mph - 0.00 in Snow Light Snow
3:53 AM 12.0 °F -0.4 °F 7.0 °F 80% 30.09 in 7.0 mi NNW 9.2 mph - 0.00 in Snow Light Snow
4:46 AM 12.2 °F 0.7 °F 8.6 °F 85% 30.07 in 5.0 mi NW 8.1 mph - 0.00 in Snow Light Snow
4:53 AM 12.9 °F 1.6 °F 9.0 °F 84% 30.08 in 6.0 mi NW 8.1 mph - 0.00 in Snow Light Snow
5:50 AM 14.0 °F 2.9 °F 10.4 °F 86% 30.07 in 6.0 mi NW 8.1 mph - 0.00 in Snow Light Snow
5:53 AM 14.0 °F 2.9 °F 10.0 °F 84% 30.07 in 7.0 mi NW 8.1 mph - 0.00 in Snow Light Snow
6:35 AM 15.8 °F 5.1 °F 10.4 °F 79% 30.07 in 9.0 mi NW 8.1 mph - 0.00 in   Overcast
6:53 AM 15.1 °F 1.1 °F 10.9 °F 84% 30.07 in 8.0 mi NW 12.7 mph - 0.00 in Snow Light Snow
7:18 AM 14.0 °F 0.5 °F 10.4 °F 86% 30.07 in 9.0 mi NW 11.5 mph - 0.00 in Snow Light Snow
7:53 AM 10.9 °F -4.1 °F 7.0 °F 84% 30.06 in 8.0 mi NW 12.7 mph - 0.00 in Snow Light Snow
8:53 AM 10.0 °F -3.7 °F 5.0 °F 80% 30.07 in 9.0 mi NNW 10.4 mph - 0.00 in   Overcast
9:31 AM 8.6 °F -6.3 °F 5.0 °F 85% 30.06 in 7.0 mi NNW 11.5 mph - N/A   Overcast
9:40 AM 10.4 °F -4.1 °F 5.0 °F 79% 30.06 in 6.0 mi NNW 11.5 mph - 0.00 in Snow Light Snow
9:53 AM 9.0 °F -7.3 °F 5.0 °F 84% 30.06 in 3.0 mi NNW 13.8 mph - 0.00 in Snow Light Snow
10:37 AM 6.8 °F -7.8 °F 3.2 °F 85% 30.06 in 2.5 mi NW 10.4 mph - 0.00 in Snow Light Snow
10:49 AM 6.8 °F -9.3 °F 3.2 °F 85% 30.06 in 1.5 mi NNW 12.7 mph - 0.00 in Snow Light Snow
10:53 AM 6.1 °F -10.9 °F 1.9 °F 83% 30.06 in 1.5 mi NW 13.8 mph - 0.00 in Snow Light Snow
11:03 AM 5.0 °F -11.6 °F 1.4 °F 85% 30.06 in 2.5 mi NNW 12.7 mph - 0.00 in Snow Light Snow
11:43 AM 1.4 °F -16.9 °F -2.2 °F 85% 30.06 in 5.0 mi NW 13.8 mph - 0.00 in Snow Blowing Snow
11:53 AM -0.0 °F -18.7 °F -4.0 °F 83% 30.06 in 6.0 mi NW 13.8 mph - 0.00 in   Overcast
12:53 PM -2.0 °F -19.6 °F -6.0 °F 83% 30.06 in 7.0 mi NW 11.5 mph - 0.00 in   Overcast
1:53 PM -4.0 °F -21.2 °F -9.0 °F 79% 30.06 in 10.0 mi WNW 10.4 mph - N/A   Overcast
2:53 PM -5.1 °F -24.3 °F -9.0 °F 83% 30.06 in 10.0 mi NW 12.7 mph - N/A   Overcast
3:53 PM -5.1 °F -24.3 °F -9.9 °F 80% 30.05 in 9.0 mi NW 12.7 mph - N/A   Overcast
4:53 PM -6.0 °F -23.6 °F -11.0 °F 79% 30.04 in 6.0 mi NW 10.4 mph - N/A   Haze
5:53 PM -6.0 °F -24.6 °F -11.0 °F 79% 30.04 in 10.0 mi NW 11.5 mph - N/A   Overcast
6:53 PM -7.1 °F -25.0 °F -11.0 °F 83% 30.04 in 9.0 mi NW 10.4 mph - N/A   Mostly Cloudy
7:53 PM -7.1 °F -26.8 °F -11.9 °F 79% 30.04 in 9.0 mi NW 12.7 mph - N/A   Mostly Cloudy
8:53 PM -7.1 °F -23.9 °F -11.9 °F 79% 30.04 in 10.0 mi WNW 9.2 mph - N/A   Overcast
9:53 PM -4.0 °F -19.0 °F -9.0 °F 79% 30.04 in 10.0 mi WNW 8.1 mph - N/A   Overcast
10:21 PM -2.2 °F -18.9 °F -7.6 °F 78% 30.04 in 4.0 mi WNW 10.4 mph - 0.00 in Snow Light Snow
10:29 PM -2.2 °F -19.9 °F -7.6 °F 78% 30.04 in 4.0 mi WNW 11.5 mph - 0.00 in Snow Light Snow
10:53 PM -2.0 °F -18.7 °F -7.1 °F 79% 30.04 in 6.0 mi NW 10.4 mph - 0.00 in Snow Light Snow
11:53 PM -0.0 °F -17.1 °F -6.0 °F 76% 30.04 in 7.0 mi NW 11.5 mph - 0.00 in Snow Light Snow